| time (UTC) | temp F | wind direction | speed MPH | gust MPH | rain 1hr in | rain 24hr in | rain mn in | humidity % | barometer mb |
| 20260507023110 | 52 | 220 | 8.0 | 0.0 | 0.00 | 0.00 | 0.00 | 93 | 1009.0 |
| 20260507022032 | 52 | 220 | 7.0 | 0.0 | 0.00 | 0.00 | 0.00 | 93 | |
| 20260507020105 | 52 | 210 | 7.0 | 0.0 | 0.00 | 0.00 | 0.00 | 93 | 1008.0 |
| 20260507013109 | 54 | 230 | 7.0 | 0.0 | 0.00 | 0.00 | 0.00 | 87 | 1008.0 |
| 20260507012132 | 54 | 230 | 7.0 | 0.0 | 0.00 | 0.00 | 0.00 | 81 | |
| 20260507010105 | 54 | 230 | 7.0 | 0.0 | 0.00 | 0.00 | 0.00 | 87 | 1008.0 |
| 20260507003109 | 55 | 250 | 7.0 | 0.0 | 0.00 | 0.00 | 0.00 | 82 | 1007.0 |
| 20260507002033 | 54 | 250 | 7.0 | 0.0 | 0.00 | 0.00 | 0.00 | 81 | |
| 20260507000241 | 55 | 250 | 7.0 | 0.0 | 0.00 | 0.00 | 0.00 | 82 | 1007.0 |
| 20260506233110 | 57 | 250 | 12.0 | 0.0 | 0.00 | 0.00 | 0.00 | 76 | 1007.0 |
| 20260506232033 | 55 | 280 | 12.0 | 0.0 | 0.00 | 0.00 | 0.00 | 82 | |
| 20260506230106 | 55 | 280 | 12.0 | 0.0 | 0.00 | 0.00 | 0.00 | 82 | 1006.0 |
| 20260506223111 | 59 | 270 | 12.0 | 0.0 | 0.00 | 0.00 | 0.00 | 72 | 1006.0 |
| 20260506222306 | 59 | 240 | 9.0 | 0.0 | 0.00 | 0.00 | 0.00 | 72 | |
| 20260506220105 | 59 | 240 | 8.0 | 0.0 | 0.00 | 0.00 | 0.00 | 72 | 1005.0 |
| 20260506213110 | 61 | 170 | 9.0 | 0.0 | 0.00 | 0.00 | 0.00 | 63 | 1005.0 |
| 20260506212055 | 61 | 130 | 12.0 | 0.0 | 0.00 | 0.00 | 0.00 | 63 | |
| 20260506210113 | 61 | 120 | 10.0 | 0.0 | 0.00 | 0.00 | 0.00 | 63 | 1005.0 |
| 20260506203109 | 63 | 110 | 8.0 | 0.0 | 0.00 | 0.00 | 0.00 | 63 | 1005.0 |
| 20260506202106 | 63 | 120 | 7.0 | 0.0 | 0.00 | 0.00 | 0.00 | 63 | |
| 20260506200106 | 63 | 110 | 7.0 | 0.0 | 0.00 | 0.00 | 0.00 | 63 | 1004.0 |
| 20260506193110 | 64 | 120 | 14.0 | 0.0 | 0.00 | 0.00 | 0.00 | 55 | 1004.0 |
| 20260506192225 | 64 | 130 | 12.0 | 0.0 | 0.00 | 0.00 | 0.00 | 55 | |
| 20260506190105 | 64 | 130 | 12.0 | 0.0 | 0.00 | 0.00 | 0.00 | 55 | 1004.0 |
| 20260506183117 | 66 | 130 | 12.0 | 0.0 | 0.00 | 0.00 | 0.00 | 52 | 1004.0 |
| 20260506182122 | 66 | 130 | 16.0 | 0.0 | 0.00 | 0.00 | 0.00 | 52 | |
| 20260506180254 | 68 | 130 | 14.0 | 0.0 | 0.00 | 0.00 | 0.00 | 49 | 1004.0 |
| 20260506173109 | 68 | 130 | 14.0 | 0.0 | 0.00 | 0.00 | 0.00 | 49 | 1004.0 |
| 20260506172047 | 70 | 120 | 16.0 | 0.0 | 0.00 | 0.00 | 0.00 | 46 | |
| 20260506170241 | 70 | 120 | 16.0 | 0.0 | 0.00 | 0.00 | 0.00 | 46 | 1004.0 |
| 20260506163605 | 70 | 130 | 15.0 | 0.0 | 0.00 | 0.00 | 0.00 | 46 | 1004.0 |
| 20260506162307 | 70 | 130 | 16.0 | 0.0 | 0.00 | 0.00 | 0.00 | 43 | |
| 20260506160105 | 72 | 140 | 15.0 | 0.0 | 0.00 | 0.00 | 0.00 | 40 | 1005.0 |
| 20260506153110 | 72 | 130 | 16.0 | 0.0 | 0.00 | 0.00 | 0.00 | 40 | 1005.0 |
| 20260506152121 | 72 | 120 | 16.0 | 0.0 | 0.00 | 0.00 | 0.00 | 43 | |
| 20260506150113 | 72 | 120 | 16.0 | 0.0 | 0.00 | 0.00 | 0.00 | 43 | 1005.0 |
| 20260506143109 | 70 | 120 | 15.0 | 0.0 | 0.00 | 0.00 | 0.00 | 46 | 1006.0 |
| 20260506142048 | 72 | 140 | 18.0 | 0.0 | 0.00 | 0.00 | 0.00 | 46 | |
| 20260506140105 | 72 | 140 | 16.0 | 0.0 | 0.00 | 0.00 | 0.00 | 43 | 1006.0 |
| 20260506133109 | 70 | 130 | 18.0 | 0.0 | 0.00 | 0.00 | 0.00 | 46 | 1006.0 |
| 20260506132048 | 70 | 130 | 16.0 | 0.0 | 0.00 | 0.00 | 0.00 | 46 | |
| 20260506130113 | 70 | 120 | 15.0 | 0.0 | 0.00 | 0.00 | 0.00 | 46 | 1007.0 |
| 20260506123110 | 70 | 150 | 10.0 | 0.0 | 0.00 | 0.00 | 0.00 | 43 | 1007.0 |
| 20260506122048 | 70 | 160 | 12.0 | 0.0 | 0.00 | 0.00 | 0.00 | 46 | |
| 20260506120246 | 70 | 150 | 10.0 | 0.0 | 0.00 | 0.00 | 0.00 | 43 | 1007.0 |
| 20260506112034 | 70 | 150 | 12.0 | 0.0 | 0.00 | 0.00 | 0.00 | 40 | |
| 20260506110113 | 70 | 160 | 9.0 | 0.0 | 0.00 | 0.00 | 0.00 | 40 | 1007.0 |
| 20260506103110 | 70 | 160 | 10.0 | 0.0 | 0.00 | 0.00 | 0.00 | 40 | 1008.0 |
| 20260506102234 | 68 | 180 | 7.0 | 0.0 | 0.00 | 0.00 | 0.00 | 49 | |
| 20260506100112 | 70 | 180 | 9.0 | 0.0 | 0.00 | 0.00 | 0.00 | 46 | 1008.0 |
| 20260506093110 | 68 | 170 | 8.0 | 0.0 | 0.00 | 0.00 | 0.00 | 49 | 1008.0 |
| 20260506092028 | 66 | 160 | 9.0 | 0.0 | 0.00 | 0.00 | 0.00 | 55 | |
| 20260506090241 | 64 | 160 | 10.0 | 0.0 | 0.00 | 0.00 | 0.00 | 59 | 1008.0 |
| 20260506083110 | 64 | 170 | 10.0 | 0.0 | 0.00 | 0.00 | 0.00 | 59 | 1008.0 |
| 20260506082033 | 63 | 230 | 7.0 | 0.0 | 0.00 | 0.00 | 0.00 | 63 | |
| 20260506080104 | 64 | 220 | 7.0 | 0.0 | 0.00 | 0.00 | 0.00 | 59 | 1008.0 |
| 20260506073110 | 63 | 210 | 7.0 | 0.0 | 0.00 | 0.00 | 0.00 | 63 | 1008.0 |
| 20260506072035 | 63 | 200 | 7.0 | 0.0 | 0.00 | 0.00 | 0.00 | 63 | |
| 20260506070247 | 61 | 200 | 6.0 | 0.0 | 0.00 | 0.00 | 0.00 | 67 | 1008.0 |
| 20260506062108 | 57 | 220 | 5.0 | 0.0 | 0.00 | 0.00 | 0.00 | 82 | |
| 20260506060112 | 57 | 230 | 6.0 | 0.0 | 0.00 | 0.00 | 0.00 | 82 | 1008.0 |
| 20260506050105 | 54 | 210 | 6.0 | 0.0 | 0.00 | 0.00 | 0.00 | 93 | 1008.0 |
| 20260506043110 | 54 | 210 | 6.0 | 0.0 | 0.00 | 0.00 | 0.00 | 93 | 1007.0 |
| 20260506042247 | 52 | 180 | 5.0 | 0.0 | 0.00 | 0.00 | 0.00 | 93 | |
| 20260506040242 | 52 | 180 | 5.0 | 0.0 | 0.00 | 0.00 | 0.00 | 93 | 1007.0 |
| 20260506033109 | 54 | 250 | 5.0 | 0.0 | 0.00 | 0.00 | 0.00 | 87 | 1007.0 |
| 20260506032036 | 54 | 260 | 5.0 | 0.0 | 0.00 | 0.00 | 0.00 | 87 | |
| 20260506030241 | 54 | 260 | 5.0 | 0.0 | 0.00 | 0.00 | 0.00 | 87 | 1007.0 |